Hourly Weather Roundup
Issued by NWS Central Illinois

Current Version | Previous Version | Text Only | Print | Product List | Glossary On
Versions: 1 2 3 4 5 6 7 8 9 10 11 12 13 14 15 16 17 18 19 20 21 22 23 24 25 26 27 28 29 30 31 32 33 34 35 36 37 38 39 40 41 42 43 44 45 46 47 48 49 50
000
NZUS43 KILX 251010
HWRILX

Area Weather Roundup
National Weather Service Lincoln IL
400 AM CST SUN FEB 25 2018

NOTE:  "FAIR" indicates few or no clouds below 12,000 feet, with
       no sigificant weather and/or obstructions to visibility.


CITY           SKY/WX    TMP DP  RH WIND       PRES   REMARKS
Bloomington    CLOUDY    33  28  81 W22G29    29.83R WCI  21
Champaign      CLOUDY    35  31  85 W23G33    29.85R WCI  23
Danville       CLOUDY    37  31  81 W24G31    29.81R WCI  25
Decatur        FAIR      34  28  79 W16       29.87R WCI  24
Effingham      FAIR      37  32  81 SW15G25   29.95R WCI  28
Flora          FAIR      41  32  71 W15G25    29.95R WCI  33
Galesburg      CLOUDY    33  30  89 SW14G23   29.82R WCI  23
Jacksonville   CLOUDY    34  29  83 SW14      29.89R WCI  24
Lacon          CLOUDY    34  28  80 W12G22    29.80R WCI  25
Lawrenceville  FAIR      43  35  73 W16G28    29.93R
Litchfield     CLEAR     33  30  88 W12G17    29.92R WCI  24
$$


CITY           SKY/WX    TMP DP  RH WIND       PRES   REMARKS
Lincoln        FAIR      34  30  86 W7G17     29.87R WCI  28
Macomb         CLOUDY   N/A N/A N/A W17       29.86R
Mattoon        FAIR      36  31  82 W13G24    29.89R WCI  27
Mt Carmel AP   FAIR      42  34  74 W17       29.94R WCI  33
Olney-Noble AP FAIR      39  32  75 W15G22    29.95R WCI  31
Paris AP       FAIR      37  32  85 W17G26    29.89R WCI  27
Peoria         CLOUDY    34  28  79 W16G29    29.83R WCI  24
Pontiac        CLOUDY    35  32  90 W25G31    29.80R WCI  22
Rantoul        CLOUDY    37  32  83 W21G30    29.83R WCI  26
Robinson       MOCLDY    42  36  79 W13       29.92R WCI  35
Springfield    MOCLDY    34  29  82 W14       29.88R WCI  25
Taylorville    FAIR      33  29  86 W14       29.91R WCI  23
$$

...REGIONAL REPORTS...


CITY           SKY/WX    TMP DP  RH WIND       PRES   REMARKS
Chicago O`Hare CLOUDY    35  27  72 W24G38    29.65R WCI  23
Kankakee       CLOUDY    35  30  82 W18       29.79R WCI  24
Moline         CLOUDY    34  28  79 W24       29.77R WCI  21
Mount Sterling PTCLDY    32  28  86 W12       29.86S WCI  23
Mount Vernon   FAIR      41  33  73 W10G18    29.97R WCI  35
Pittsfield     CLEAR     34  30  86 W13G18    29.90R WCI  25
Quincy         CLEAR     32  28  85 W13       29.88R WCI  22
Rockford       CLOUDY    32  25  75 W22G30    29.69R WCI  19
$$


CITY           SKY/WX    TMP DP  RH WIND       PRES   REMARKS
Burlington     CLOUDY    33  27  78 W18G28    29.82R WCI  22
Cedar Rapids   CLOUDY    31  26  82 W29G38    29.74R WCI  16
Des Moines     CLEAR     25  20  81 SW14      29.84R WCI  13
Kirksville     CLEAR     31  26  82 W13       29.89R WCI  21
Ottumwa        MOCLDY    30  24  78 W15       29.82R WCI  19
St Louis       CLEAR     36  31  82 W13       29.95R WCI  27
$$


CITY           SKY/WX    TMP DP  RH WIND       PRES   REMARKS
Terre Haute    CLOUDY    42  35  76 W15G21    29.88R WCI  34
Evansville     FAIR      46  38  73 W13G20    29.95R
Indianapolis   CLOUDY    43  36  76 W22G31    29.82R WCI  34
Lafayette      CLOUDY    38  32  79 W18G29    29.80R WCI  28
Madison        CLOUDY    28  21  75 W16G31    29.60R WCI  16
Milwaukee      MOCLDY    35  27  72 W28G45    29.54R WCI  22
$$





USA.gov is the U.S. government's official web portal to all federal, state and local government web resources and services.